Location: Waco, TX
(31.5480°N, 97.1670°W)
Time: 15:41:33
(UTC-05:00)

ISS - Pass Details

Date: 14 August 2019
Orbit: 410 x 421 km, 51.6° (Epoch: 22 August)

Event Time Altitude Azimuth Distance (km) Brightness Sun altitude
Rises 19:21:45 0° 300° (WNW) 2,365 1.6 9.8°
Reaches altitude 10° 19:24:08 10° 285° (WNW) 1,497 2.5 9.3°
Maximum altitude 19:26:49 22° 232° (SW) 961 -1.2 8.7°
Drops below altitude 10° 19:29:29 10° 179° (S) 1,487 -1.1 8.2°
Sets 19:31:51 0° 163° (SSE) 2,344 -0.2 7.7°
